Flag for U.S.A. Weather past 2 weeks in Lafayette, Indiana, U.S.A.

Now
45 °F

Rain. Fog.


Feels Like: 38 °F
Forecast: 42 / 48 °F
Wind: 17 mph from Northeast

Location: Purdue University Airport

Current Time: Apr 25, 2015 at 4:13:19 PM

Latest Report: Apr 25, 2015 at 2:54 PM


Visibility: 4 mi

Pressure: 29.67 "Hg

Humidity: 93%

Dew point: 43 °F

Location of LafayetteLocation

Historic Weather in Lafayette — Graph

°F

Lafayette temperature yesterday

Maximum temperature yesterday: 60 °F (at 3:54 PM)
Minimum temperature yesterday: 28 °F (at 6:54 AM)
Average temperature yesterday: 46 °F

Past Weeks' High & Low Weather Summary

 TemperatureHumidityPressure
High76 °F (Apr 18, 2:54 PM)100% (Apr 16, 9:54 PM)30.31 "Hg (Apr 16, 9:54 PM)
Low28 °F (Apr 24, 6:54 AM)22% (Apr 24, 3:54 PM)29.30 "Hg (Apr 19, 11:54 PM)
Average52 °F61%29.96 "Hg
* Reported Apr 10 2:54 PM — Apr 25 2:54 PM, Lafayette, Weather by CustomWeather, © 2015

Note: Actual official high and low records may vary slightly from our data, if they occured in-between our weather recording intervals... More about our weather records

Advertising

Lafayette weather history for previous 24 hours

 ConditionsComfort  
Time TempWeatherWind HumidityBarometerVisibility
2:54 PM
Sat, Apr 25
45 °FRain. Fog.17 mph93%29.67 "Hg4 mi
1:54 PM45 °FRain. Fog.17 mph93%29.67 "Hg2 mi
1:03 PM46 °FLight rain. Mostly cloudy.14 mph89%29.68 "Hg9 mi
12:03 PM45 °FLight rain. Fog.22 mph93%29.66 "Hg3 mi
10:54 AM46 °FLight rain. Fog.16 mph89%29.69 "Hg7 mi
10:01 AM47 °FLight rain. Fog.16 mph90%29.71 "Hg6 mi
8:54 AM48 °FMostly cloudy.15 mph89%29.73 "Hg10 mi
7:54 AM47 °FOvercast.12 mph90%29.73 "Hg10 mi
6:54 AM47 °FMostly cloudy.10 mph90%29.74 "Hg10 mi
5:54 AM48 °FRain. Mostly cloudy.7 mph83%29.76 "Hg6 mi
4:54 AM52 °FOvercast.8 mph57%29.77 "Hg10 mi
3:54 AM51 °FOvercast.9 mph59%29.78 "Hg10 mi
2:54 AM51 °FOvercast.8 mph61%29.82 "Hg10 mi
1:54 AM51 °FOvercast.7 mph63%29.85 "Hg10 mi
12:54 AM52 °FOvercast.7 mph59%29.85 "Hg10 mi
11:54 PM
Fri, Apr 24
52 °FOvercast.9 mph59%29.87 "Hg10 mi
10:54 PM52 °FOvercast.5 mph59%29.88 "Hg10 mi
9:54 PM51 °FMostly cloudy.10 mph69%29.87 "Hg10 mi
8:54 PM53 °FLight rain. Overcast.6 mph43%29.90 "Hg8 mi
6:54 PM58 °FMostly cloudy.12 mph31%29.93 "Hg10 mi
5:54 PM59 °FOvercast.8 mph27%29.94 "Hg10 mi
4:54 PM60 °FPassing clouds.5 mph26%29.95 "Hg10 mi
Weather by CustomWeather, © 2015

See weather overviewHow to use our weather pages